User: anonymous   Login
Location: Unspecified
(0.0000°N, 0.0000°E)
Time: 17:10:12
(UTC+00:00)
Language:

DANDE - Orbit

View from above orbital plane
View from above orbital plane
View from above satellite
View from above satellite

Ground track
Ground track

The orbit data is extracted from the following two-line orbital elements,

1 39267U 13055C   24104.84159240  .00014790  00000-0  36562-3 0  9991
2 39267  81.0015 325.7767 0586869 213.3513 142.9403 14.47875148543937
Epoch (UTC): 13 April 2024 20:11:53
Eccentricity: 0.0586869
inclination: 81.0015°
perigee height: 315 km
apogee height: 1150 km
right ascension of ascending node: 325.7767°
argument of perigee: 213.3513°
revolutions per day: 14.47875148
mean anomaly at epoch: 142.9403°
orbit number at epoch: 54393

The dashed part of the orbit path shows where the satellite is in the earth's shadow,  

DLR